Location: Deuil
(48.9767°N, 2.3272°E)
Time: 17:26:56
(UTC+00:00)

NOAA 16 DEB - Visible Passes

Search period start: 11 August 2022 00:00
Search period end: 21 August 2022 00:00
Orbit: 769 x 836 km, 98.7° (Epoch: 11 August)

Date Brightness Start Highest point End Pass type
(mag) Time Alt. Az. Time Alt. Az. Time Alt. Az.
11 Aug ? 00:33:36 20° W 00:33:50 20° W 00:37:48 10° NW visible
11 Aug ? 22:26:35 37° ESE 22:27:57 44° ENE 22:33:05 10° N visible
12 Aug ? 00:07:35 32° W 00:07:47 32° W 00:12:38 10° NNW visible
12 Aug ? 22:00:34 24° E 22:02:22 29° ENE 22:06:58 10° N visible
12 Aug ? 23:41:34 50° WSW 23:41:50 51° W 23:47:08 10° NNW visible
13 Aug ? 21:34:33 15° E 21:36:53 20° NE 21:40:40 10° NNE visible
13 Aug ? 23:15:33 74° SSW 23:15:59 81° WSW 23:21:27 10° NNW visible
14 Aug ? 00:56:32 13° W 00:56:32 13° W 00:59:03 10° WNW visible
14 Aug ? 21:09:02 10° ENE 21:11:28 13° NE 21:13:55 10° NNE visible
14 Aug ? 22:49:31 59° ESE 22:50:14 65° ENE 22:55:36 10° N visible
15 Aug ? 00:30:31 21° W 00:30:31 21° W 00:34:29 10° NW visible
15 Aug ? 22:23:30 38° E 22:24:33 42° ENE 22:29:37 10° N visible
16 Aug ? 00:04:30 34° W 00:04:30 34° W 00:09:16 10° NNW visible
16 Aug ? 21:57:28 24° E 21:58:58 28° ENE 22:03:27 10° N visible
16 Aug ? 23:38:28 54° W 23:38:28 54° W 23:43:43 10° NNW visible
17 Aug ? 21:31:26 15° E 21:33:28 19° NE 21:37:05 10° NNE visible
17 Aug ? 23:12:26 85° SW 23:12:32 86° WSW 23:17:59 10° NNW visible
18 Aug ? 00:53:26 14° W 00:53:26 14° W 00:55:50 10° NW visible
18 Aug ? 21:05:57 10° ENE 21:08:04 12° NE 21:10:11 10° NNE visible
18 Aug ? 22:46:24 59° E 22:46:46 61° ENE 22:52:05 10° N visible
19 Aug ? 00:27:24 23° W 00:27:24 23° W 00:31:06 10° NW visible
19 Aug ? 22:20:22 37° E 22:21:06 39° ENE 22:26:04 10° N visible
20 Aug ? 00:01:22 35° W 00:01:22 35° W 00:05:48 10° NNW visible
20 Aug ? 21:54:19 24° E 21:55:30 26° ENE 21:59:52 10° N visible
20 Aug ? 23:35:19 56° W 23:35:19 56° W 23:40:12 10° NNW visible
